Time,TemperatureF,DewpointF,PressureIn,WindDirection,WindDirectionDegrees,WindSpeedMPH,WindSpeedGustMPH,Humidity,HourlyPrecipIn,Conditions,Clouds,dailyrainin,SoftwareType,DateUTC
2013-01-17 00:01:00,41.0,15.0,30.22,NNE,17,9.0,17.0,34,0.00,,,0.00,,2013-01-17 08:01:00,
2013-01-17 00:11:00,41.0,15.0,30.22,NNE,17,9.0,17.0,34,0.00,,,0.00,,2013-01-17 08:11:00,
2013-01-17 00:22:00,40.0,14.0,30.22,NNE,19,8.0,18.0,34,0.00,,,0.00,,2013-01-17 08:22:00,
2013-01-17 00:32:00,40.0,14.0,30.22,NNE,26,9.0,17.0,34,0.00,,,0.00,,2013-01-17 08:32:00,
2013-01-17 00:42:00,40.0,14.0,30.22,NNE,26,9.0,17.0,34,0.00,,,0.00,,2013-01-17 08:42:00,
2013-01-17 00:52:00,40.0,14.0,30.24,NE,50,12.0,19.0,34,0.00,,,0.00,,2013-01-17 08:52:00,
2013-01-17 01:02:00,39.0,14.0,30.24,NE,34,10.0,19.0,36,0.00,,,0.00,,2013-01-17 09:02:00,
2013-01-17 01:11:00,39.0,14.0,30.24,NE,34,10.0,19.0,36,0.00,,,0.00,,2013-01-17 09:11:00,
2013-01-17 01:22:00,39.0,14.0,30.22,NNE,22,9.0,18.0,36,0.00,,,0.00,,2013-01-17 09:22:00,
2013-01-17 01:32:00,39.0,14.0,30.22,NNE,32,10.0,18.0,35,0.00,,,0.00,,2013-01-17 09:32:00,
2013-01-17 01:42:00,39.0,14.0,30.22,NNE,32,10.0,18.0,35,0.00,,,0.00,,2013-01-17 09:42:00,
2013-01-17 01:52:00,39.0,14.0,30.22,North,355,7.0,17.0,36,0.00,,,0.00,,2013-01-17 09:52:00,
2013-01-17 02:02:00,38.0,13.0,30.22,NNE,32,12.0,19.0,36,0.00,,,0.00,,2013-01-17 10:02:00,
2013-01-17 02:11:00,38.0,13.0,30.22,NNE,32,12.0,19.0,36,0.00,,,0.00,,2013-01-17 10:11:00,
2013-01-17 02:22:00,38.0,14.0,30.22,NNE,24,8.0,16.0,37,0.00,,,0.00,,2013-01-17 10:22:00,
2013-01-17 02:32:00,38.0,14.0,30.22,NNE,26,5.0,12.0,37,0.00,,,0.00,,2013-01-17 10:32:00,
2013-01-17 02:42:00,38.0,14.0,30.22,NNE,26,5.0,12.0,37,0.00,,,0.00,,2013-01-17 10:42:00,
2013-01-17 02:52:00,38.0,13.0,30.22,NE,34,7.0,13.0,36,0.00,,,0.00,,2013-01-17 10:52:00,
2013-01-17 03:02:00,37.0,13.0,30.22,NNE,24,7.0,12.0,37,0.00,,,0.00,,2013-01-17 11:02:00,
2013-01-17 03:11:00,37.0,13.0,30.22,NNE,24,7.0,12.0,37,0.00,,,0.00,,2013-01-17 11:11:00,
2013-01-17 03:22:00,37.0,13.0,30.22,NNE,22,5.0,10.0,37,0.00,,,0.00,,2013-01-17 11:22:00,
2013-01-17 03:32:00,37.0,13.0,30.23,NNE,17,6.0,12.0,37,0.00,,,0.00,,2013-01-17 11:32:00,
2013-01-17 03:42:00,37.0,13.0,30.23,NNE,17,6.0,12.0,37,0.00,,,0.00,,2013-01-17 11:42:00,
2013-01-17 03:52:00,37.0,14.0,30.22,NNE,32,5.0,10.0,38,0.00,,,0.00,,2013-01-17 11:52:00,
2013-01-17 04:02:00,37.0,14.0,30.22,NNE,32,4.0,9.0,38,0.00,,,0.00,,2013-01-17 12:02:00,
2013-01-17 04:11:00,37.0,14.0,30.22,NNE,32,4.0,9.0,38,0.00,,,0.00,,2013-01-17 12:11:00,
2013-01-17 04:22:00,36.0,13.0,30.22,NNE,33,5.0,10.0,39,0.00,,,0.00,,2013-01-17 12:22:00,
2013-01-17 04:32:00,37.0,14.0,30.22,NE,44,5.0,11.0,38,0.00,,,0.00,,2013-01-17 12:32:00,
2013-01-17 04:42:00,37.0,14.0,30.22,NE,44,5.0,11.0,38,0.00,,,0.00,,2013-01-17 12:42:00,
2013-01-17 04:53:00,37.0,14.0,30.23,NE,47,5.0,11.0,38,0.00,,,0.00,,2013-01-17 12:53:00,
2013-01-17 05:02:00,37.0,14.0,30.23,NNE,30,6.0,11.0,39,0.00,,,0.00,,2013-01-17 13:02:00,
2013-01-17 05:12:00,37.0,14.0,30.23,NNE,30,6.0,11.0,39,0.00,,,0.00,,2013-01-17 13:12:00,
2013-01-17 05:22:00,36.0,13.0,30.23,NE,34,6.0,11.0,39,0.00,,,0.00,,2013-01-17 13:22:00,
2013-01-17 05:33:00,36.0,13.0,30.24,NNE,31,6.0,11.0,39,0.00,,,0.00,,2013-01-17 13:33:00,
2013-01-17 05:42:00,36.0,13.0,30.24,NNE,31,6.0,11.0,39,0.00,,,0.00,,2013-01-17 13:42:00,
2013-01-17 05:53:00,37.0,14.0,30.22,NNE,20,7.0,12.0,39,0.00,,,0.00,,2013-01-17 13:53:00,
2013-01-17 06:02:00,37.0,13.0,30.22,NNE,31,8.0,12.0,37,0.00,,,0.00,,2013-01-17 14:02:00,
2013-01-17 06:12:00,37.0,13.0,30.22,NNE,31,8.0,12.0,37,0.00,,,0.00,,2013-01-17 14:12:00,
2013-01-17 06:22:00,36.0,13.0,30.22,NNE,24,5.0,10.0,39,0.00,,,0.00,,2013-01-17 14:22:00,
2013-01-17 06:32:00,36.0,13.0,30.22,NNE,14,7.0,14.0,39,0.00,,,0.00,,2013-01-17 14:32:00,
2013-01-17 06:42:00,36.0,13.0,30.22,NNE,14,7.0,14.0,39,0.00,,,0.00,,2013-01-17 14:42:00,
2013-01-17 06:53:00,37.0,14.0,30.22,NNE,22,8.0,16.0,38,0.00,,,0.00,,2013-01-17 14:53:00,
2013-01-17 07:02:00,38.0,13.0,30.22,North,5,10.0,18.0,36,0.00,,,0.00,,2013-01-17 15:02:00,
2013-01-17 07:12:00,38.0,13.0,30.22,North,5,10.0,18.0,36,0.00,,,0.00,,2013-01-17 15:12:00,
2013-01-17 07:22:00,38.0,13.0,30.22,NE,44,11.0,19.0,36,0.00,,,0.00,,2013-01-17 15:22:00,
2013-01-17 07:32:00,37.0,13.0,30.22,NNE,15,9.0,19.0,37,0.00,,,0.00,,2013-01-17 15:32:00,
2013-01-17 07:42:00,37.0,13.0,30.22,NNE,15,9.0,19.0,37,0.00,,,0.00,,2013-01-17 15:42:00,
2013-01-17 07:53:00,37.0,13.0,30.23,NE,42,11.0,18.0,36,0.00,,,0.00,,2013-01-17 15:53:00,
2013-01-17 08:02:00,38.0,12.0,30.24,NNE,26,9.0,18.0,34,0.00,,,0.00,,2013-01-17 16:02:00,
2013-01-17 08:12:00,38.0,12.0,30.24,NNE,26,9.0,18.0,34,0.00,,,0.00,,2013-01-17 16:12:00,
2013-01-17 08:22:00,40.0,13.0,30.24,NNE,19,11.0,17.0,32,0.00,,,0.00,,2013-01-17 16:22:00,
2013-01-17 08:32:00,40.0,13.0,30.27,NNE,30,12.0,19.0,32,0.00,,,0.00,,2013-01-17 16:32:00,
2013-01-17 08:42:00,40.0,13.0,30.27,NNE,30,12.0,19.0,32,0.00,,,0.00,,2013-01-17 16:42:00,
2013-01-17 08:53:00,40.0,13.0,30.27,NE,36,9.0,22.0,32,0.00,,,0.00,,2013-01-17 16:53:00,
2013-01-17 09:02:00,40.0,13.0,30.27,NE,55,11.0,17.0,32,0.00,,,0.00,,2013-01-17 17:02:00,
2013-01-17 09:12:00,40.0,13.0,30.27,NE,55,11.0,17.0,32,0.00,,,0.00,,2013-01-17 17:12:00,
2013-01-17 09:22:00,41.0,13.0,30.28,NE,48,13.0,21.0,31,0.00,,,0.00,,2013-01-17 17:22:00,
2013-01-17 09:32:00,42.0,12.0,30.28,NNE,21,13.0,20.0,29,0.00,,,0.00,,2013-01-17 17:32:00,
2013-01-17 09:42:00,42.0,12.0,30.28,NNE,21,13.0,20.0,29,0.00,,,0.00,,2013-01-17 17:42:00,
2013-01-17 09:53:00,43.0,11.0,30.29,NNE,23,10.0,20.0,27,0.00,,,0.00,,2013-01-17 17:53:00,
2013-01-17 10:02:00,43.0,11.0,30.29,NNE,30,13.0,19.0,27,0.00,,,0.00,,2013-01-17 18:02:00,
2013-01-17 10:12:00,43.0,11.0,30.29,NNE,30,13.0,19.0,27,0.00,,,0.00,,2013-01-17 18:12:00,
2013-01-17 10:22:00,44.0,13.0,30.29,NE,35,10.0,21.0,28,0.00,,,0.00,,2013-01-17 18:22:00,
2013-01-17 10:33:00,45.0,13.0,30.27,NNE,26,15.0,22.0,27,0.00,,,0.00,,2013-01-17 18:33:00,
2013-01-17 10:43:00,45.0,13.0,30.27,NNE,26,15.0,22.0,27,0.00,,,0.00,,2013-01-17 18:43:00,
2013-01-17 10:53:00,45.0,13.0,30.27,East,94,16.0,23.0,27,0.00,,,0.00,,2013-01-17 18:53:00,
2013-01-17 11:02:00,46.0,13.0,30.26,NNE,29,17.0,21.0,26,0.00,,,0.00,,2013-01-17 19:02:00,
2013-01-17 11:12:00,46.0,13.0,30.26,NNE,29,17.0,21.0,26,0.00,,,0.00,,2013-01-17 19:12:00,
2013-01-17 11:22:00,47.0,14.0,30.25,ENE,67,10.0,22.0,26,0.00,,,0.00,,2013-01-17 19:22:00,
2013-01-17 11:32:00,48.0,14.0,30.24,ENE,57,13.0,20.0,25,0.00,,,0.00,,2013-01-17 19:32:00,
2013-01-17 11:42:00,48.0,14.0,30.24,ENE,57,13.0,20.0,25,0.00,,,0.00,,2013-01-17 19:42:00,
2013-01-17 11:53:00,49.0,14.0,30.24,NE,41,9.0,22.0,24,0.00,,,0.00,,2013-01-17 19:53:00,
2013-01-17 12:02:00,50.0,14.0,30.23,NNE,14,7.0,20.0,23,0.00,,,0.00,,2013-01-17 20:02:00,
2013-01-17 12:12:00,50.0,14.0,30.23,NNE,14,7.0,20.0,23,0.00,,,0.00,,2013-01-17 20:12:00,
2013-01-17 12:22:00,51.0,14.0,30.24,NE,34,9.0,21.0,22,0.00,,,0.00,,2013-01-17 20:22:00,
2013-01-17 12:32:00,52.0,13.0,30.22,NNE,19,12.0,26.0,21,0.00,,,0.00,,2013-01-17 20:32:00,
2013-01-17 12:42:00,52.0,13.0,30.22,NNE,19,12.0,26.0,21,0.00,,,0.00,,2013-01-17 20:42:00,
2013-01-17 12:53:00,53.0,12.0,30.22,North,9,11.0,25.0,19,0.00,,,0.00,,2013-01-17 20:53:00,
2013-01-17 13:02:00,53.0,12.0,30.21,NE,37,13.0,25.0,19,0.00,,,0.00,,2013-01-17 21:02:00,
2013-01-17 13:12:00,53.0,12.0,30.21,NE,37,13.0,25.0,19,0.00,,,0.00,,2013-01-17 21:12:00,
2013-01-17 13:22:00,54.0,11.0,30.19,NNE,28,16.0,25.0,18,0.00,,,0.00,,2013-01-17 21:22:00,
2013-01-17 13:33:00,55.0,10.0,30.19,NNE,26,14.0,27.0,16,0.00,,,0.00,,2013-01-17 21:33:00,
2013-01-17 13:42:00,55.0,10.0,30.19,NNE,26,14.0,27.0,16,0.00,,,0.00,,2013-01-17 21:42:00,
2013-01-17 13:53:00,55.0,10.0,30.18,NE,41,11.0,26.0,16,0.00,,,0.00,,2013-01-17 21:53:00,
2013-01-17 14:02:00,55.0,10.0,30.18,NNE,28,17.0,26.0,16,0.00,,,0.00,,2013-01-17 22:02:00,
2013-01-17 14:12:00,55.0,10.0,30.18,NNE,28,17.0,26.0,16,0.00,,,0.00,,2013-01-17 22:12:00,
2013-01-17 14:22:00,55.0,10.0,30.18,NE,51,15.0,28.0,16,0.00,,,0.00,,2013-01-17 22:22:00,
2013-01-17 14:32:00,56.0,10.0,30.18,NE,50,12.0,25.0,16,0.00,,,0.00,,2013-01-17 22:32:00,
2013-01-17 14:42:00,56.0,10.0,30.18,NE,50,12.0,25.0,16,0.00,,,0.00,,2013-01-17 22:42:00,
2013-01-17 14:52:00,56.0,10.0,30.17,NE,49,11.0,23.0,16,0.00,,,0.00,,2013-01-17 22:52:00,
2013-01-17 15:02:00,56.0,9.0,30.17,NE,34,11.0,22.0,15,0.00,,,0.00,,2013-01-17 23:02:00,
2013-01-17 15:12:00,56.0,9.0,30.17,NE,34,11.0,22.0,15,0.00,,,0.00,,2013-01-17 23:12:00,
2013-01-17 15:22:00,56.0,7.0,30.16,NE,38,12.0,25.0,14,0.00,,,0.00,,2013-01-17 23:22:00,
2013-01-17 15:32:00,57.0,10.0,30.17,NE,40,15.0,25.0,15,0.00,,,0.00,,2013-01-17 23:32:00,
2013-01-17 15:42:00,57.0,10.0,30.17,NE,40,15.0,25.0,15,0.00,,,0.00,,2013-01-17 23:42:00,
2013-01-17 15:53:00,56.0,9.0,30.17,ENE,61,11.0,22.0,15,0.00,,,0.00,,2013-01-17 23:53:00,
2013-01-17 16:02:00,56.0,9.0,30.17,NE,35,14.0,23.0,15,0.00,,,0.00,,2013-01-18 00:02:00,
2013-01-17 16:12:00,56.0,9.0,30.17,NE,35,14.0,23.0,15,0.00,,,0.00,,2013-01-18 00:12:00,
2013-01-17 16:22:00,56.0,7.0,30.18,NNE,18,9.0,21.0,14,0.00,,,0.00,,2013-01-18 00:22:00,
2013-01-17 16:32:00,56.0,7.0,30.18,NNE,18,9.0,21.0,14,0.00,,,0.00,,2013-01-18 00:32:00,
2013-01-17 16:42:00,55.0,7.0,30.18,NNE,33,9.0,18.0,14,0.00,,,0.00,,2013-01-18 00:42:00,
2013-01-17 16:52:00,55.0,8.0,30.19,NE,55,9.0,18.0,15,0.00,,,0.00,,2013-01-18 00:52:00,
2013-01-17 17:02:00,53.0,8.0,30.19,NE,47,8.0,17.0,16,0.00,,,0.00,,2013-01-18 01:02:00,
2013-01-17 17:12:00,53.0,8.0,30.19,NE,47,8.0,17.0,16,0.00,,,0.00,,2013-01-18 01:12:00,
2013-01-17 17:22:00,52.0,9.0,30.17,NNE,19,10.0,17.0,17,0.00,,,0.00,,2013-01-18 01:22:00,
2013-01-17 17:32:00,52.0,10.0,30.17,ENE,57,10.0,18.0,18,0.00,,,0.00,,2013-01-18 01:32:00,
2013-01-17 17:42:00,52.0,10.0,30.17,ENE,57,10.0,18.0,18,0.00,,,0.00,,2013-01-18 01:42:00,
2013-01-17 17:52:00,51.0,9.0,30.18,NNE,27,9.0,17.0,18,0.00,,,0.00,,2013-01-18 01:52:00,
2013-01-17 18:02:00,52.0,9.0,30.18,ENE,70,7.0,17.0,17,0.00,,,0.00,,2013-01-18 02:02:00,
2013-01-17 18:12:00,52.0,9.0,30.18,ENE,70,7.0,17.0,17,0.00,,,0.00,,2013-01-18 02:12:00,
2013-01-17 18:22:00,51.0,8.0,30.17,ENE,59,9.0,18.0,17,0.00,,,0.00,,2013-01-18 02:22:00,
2013-01-17 18:32:00,51.0,8.0,30.19,NE,55,8.0,13.0,17,0.00,,,0.00,,2013-01-18 02:32:00,
2013-01-17 18:42:00,51.0,8.0,30.19,NE,55,8.0,13.0,17,0.00,,,0.00,,2013-01-18 02:42:00,
2013-01-17 18:53:00,51.0,8.0,30.18,NE,54,9.0,20.0,17,0.00,,,0.00,,2013-01-18 02:53:00,
2013-01-17 19:02:00,51.0,8.0,30.18,NE,46,8.0,17.0,17,0.00,,,0.00,,2013-01-18 03:02:00,
2013-01-17 19:12:00,51.0,8.0,30.18,NE,46,8.0,17.0,17,0.00,,,0.00,,2013-01-18 03:12:00,
2013-01-17 19:22:00,50.0,7.0,30.18,NNE,31,9.0,19.0,17,0.00,,,0.00,,2013-01-18 03:22:00,
2013-01-17 19:32:00,51.0,8.0,30.18,NE,53,11.0,19.0,17,0.00,,,0.00,,2013-01-18 03:32:00,
2013-01-17 19:42:00,51.0,8.0,30.18,NE,53,11.0,19.0,17,0.00,,,0.00,,2013-01-18 03:42:00,
2013-01-17 19:52:00,50.0,7.0,30.20,NE,41,7.0,17.0,17,0.00,,,0.00,,2013-01-18 03:52:00,
2013-01-17 20:02:00,49.0,7.0,30.20,ENE,71,9.0,16.0,18,0.00,,,0.00,,2013-01-18 04:02:00,
2013-01-17 20:11:00,49.0,7.0,30.20,ENE,71,9.0,16.0,18,0.00,,,0.00,,2013-01-18 04:11:00,
2013-01-17 20:22:00,49.0,7.0,30.19,NE,49,6.0,14.0,18,0.00,,,0.00,,2013-01-18 04:22:00,
2013-01-17 20:32:00,46.0,7.0,30.19,NNE,30,3.0,10.0,20,0.00,,,0.00,,2013-01-18 04:32:00,
2013-01-17 20:42:00,46.0,7.0,30.19,NNE,30,3.0,10.0,20,0.00,,,0.00,,2013-01-18 04:42:00,
2013-01-17 20:53:00,43.0,7.0,30.20,NE,34,5.0,7.0,22,0.00,,,0.00,,2013-01-18 04:53:00,
2013-01-17 21:03:00,43.0,7.0,30.20,NE,47,4.0,7.0,22,0.00,,,0.00,,2013-01-18 05:03:00,
2013-01-17 21:11:00,43.0,7.0,30.20,NE,47,4.0,7.0,22,0.00,,,0.00,,2013-01-18 05:11:00,
2013-01-17 21:22:00,42.0,7.0,30.21,NNE,31,4.0,6.0,23,0.00,,,0.00,,2013-01-18 05:22:00,
2013-01-17 21:32:00,43.0,7.0,30.22,NE,40,2.0,12.0,22,0.00,,,0.00,,2013-01-18 05:32:00,
2013-01-17 21:42:00,43.0,7.0,30.22,NE,40,2.0,12.0,22,0.00,,,0.00,,2013-01-18 05:42:00,
2013-01-17 21:53:00,42.0,7.0,30.21,North,11,6.0,9.0,23,0.00,,,0.00,,2013-01-18 05:53:00,
2013-01-17 22:02:00,42.0,7.0,30.20,NNE,28,4.0,10.0,23,0.00,,,0.00,,2013-01-18 06:02:00,
2013-01-17 22:12:00,42.0,7.0,30.20,NNE,28,4.0,10.0,23,0.00,,,0.00,,2013-01-18 06:12:00,
2013-01-17 22:22:00,41.0,6.0,30.20,NE,34,2.0,4.0,23,0.00,,,0.00,,2013-01-18 06:22:00,
2013-01-17 22:32:00,41.0,6.0,30.20,NNE,26,1.0,8.0,23,0.00,,,0.00,,2013-01-18 06:32:00,
2013-01-17 22:42:00,41.0,6.0,30.20,NNE,26,1.0,8.0,23,0.00,,,0.00,,2013-01-18 06:42:00,
2013-01-17 22:52:00,40.0,6.0,30.19,NNE,18,4.0,9.0,24,0.00,,,0.00,,2013-01-18 06:52:00,
2013-01-17 23:02:00,40.0,6.0,30.19,NNE,21,6.0,7.0,24,0.00,,,0.00,,2013-01-18 07:02:00,
2013-01-17 23:11:00,40.0,6.0,30.19,NNE,21,6.0,7.0,24,0.00,,,0.00,,2013-01-18 07:11:00,
2013-01-17 23:22:00,40.0,6.0,30.19,NNE,24,5.0,7.0,24,0.00,,,0.00,,2013-01-18 07:22:00,
2013-01-17 23:32:00,41.0,6.0,30.19,NNE,25,5.0,7.0,23,0.00,,,0.00,,2013-01-18 07:32:00,
2013-01-17 23:42:00,41.0,6.0,30.19,NNE,25,5.0,7.0,23,0.00,,,0.00,,2013-01-18 07:42:00,
2013-01-17 23:52:00,41.0,7.0,30.20,NNE,24,2.0,7.0,24,0.00,,,0.00,,2013-01-18 07:52:00,